CZ-11 R/B, 41847

Orbit data source: Space-Track

CZ-11 R/B, 41847 is space debris in SSO originally from a launch on Wed, 09 Nov 2016 UTC via a CHANG ZHENG 11 launch vehicle from the Jiuquan Satellite Launch Center, China (JSC). Debris objects in space refer to the collection of defunct objects orbiting the Earth. Examples of debris include non-operational satellites, rocket bodies, and fragments generated from explosions, collisions, or faulty payload assembly.

Loading next visibility...
Identifier
41847, 2016-066G
Orbit
SSO
Country
Flag of CNCN / PRC
Related business
Flag of CNXpeng Aeroht (CN)
Manufacturer
Kechuang Hangtian
Mission
Partially operational spacecraft
Bus & Motor
KS-1, Unknown motor
Mass
503 kg wet, 1 kg dry
Launch date (UTC)
2016-11-09 (10 years ago)
Launch vehicle
CHANG ZHENG 11
Launch site
Jiuquan Satellite Launch Center, China (JSC)
Object type
Payload
Rocket body
Debris
Shape & HBR
CYL, 1.5 m
Radar Cross Section
Large (>1 m²)

Expand to show TLE details & history
Last TLE update: 6 hours ago

TLE from 6 hours ago
0 CZ-11 R/B
1 41847U 16066G   26256.19329705  .00000805  00000-0  12242-3 0  9997
2 41847  98.3757 330.9168 0340447 222.3377 135.1082 14.44838185517507
Epoch: 2026-09-13T04:38Z
TLE epoch observation values (Epoch: 2026-09-13T04:38:20.865Z)
Latitude
0.00006°
Longitude
-90.86161°
Altitude
921.26 km
Speed
7.3 km/s
True Right ascension
22h 03m 40s
True Declination
0° 00' 00"
Sunlit
Object was in full shadow at epoch
Visualization orbit readout
Latitude
Unknown
Longitude
Unknown
Altitude
Unknown
Speed
Unknown
Apparent Right ascension
Unknown
Apparent Declination
Unknown
Sunlit
N/A
Visualization observer readout
Local Sidereal Time
03:06:22
Azimuth
Unknown
Elevation
Unknown
Doppler factor
Unknown
Orbital elements
Apogee altitude
981.986 km
Perigee altitude
497.339 km
Semi-major axis
7,117.799 km
Eccentricity
0.03404
Inclination
98.3757°
RAAN
330.9168°
Arg. of periapsis
222.3377°
True anomaly
137.77994°
Mean anomaly
135.1082°
Eccentric anomaly
136.4521°
Mean motion
3.6143 °/min
Orbital period
99.6 mins
BSTAR
0.00012242
Loading maneuver chart data...
Computing Atmospheric mass density...
Loading historical data...
Loading historical data...
Loading historical data...
Loading historical data...
Loading historical data...
Loading historical data...
Loading historical data...

Documentation

Showing up to 5 results
|